Regional Weather Roundup
Issued by NWS

Home | Current Version | Previous Version | Graphics & Text | Print | Product List | Glossary On
Versions: 1 2 3 4 5 6 7 8 9 10 11 12 13 14 15 16 17 18 19 20 21 22 23 24 25 26 27 28 29 30 31 32 33 34 35 36 37 38 39 40 41 42 43 44 45 46 47 48 49 50
718
ASUS43 KBIS 300502
RWRND

NORTH DAKOTA REGIONAL WEATHER ROUNDUP
NATIONAL WEATHER SERVICE BISMARCK ND
1200 AM CDT THU MAR 30 2017

NOTE: "FAIR" INDICATES FEW OR NO CLOUDS BELOW 12,000 FEET WITH NO
SIGNIFICANT WEATHER AND/OR OBSTRUCTIONS TO VISIBILITY.


NDZ001>003-009>011-017-300600-
NORTHWEST NORTH DAKOTA

CITY           SKY/WX    TMP DP  RH WIND       PRES   REMARKS
WILLISTON      FAIR      43  32  65 SW3       29.83S
MINOT          FAIR      47  39  74 S10       29.82F
$$

NDZ018>021-031>035-040>046-300600-
SOUTHWEST NORTH DAKOTA

CITY           SKY/WX    TMP DP  RH WIND       PRES   REMARKS
BISMARCK       CLOUDY    51  35  54 S22G30    29.93R
DICKINSON      FAIR      38  30  73 S8        29.85S
GARRISON         N/A     42  36  79 SW7       29.85S
HETTINGER ARPT CLEAR     43  37  79 S9        29.90S
$$

NDZ004>008-012>016-024-026-027-054-300600-
NORTHEAST NORTH DAKOTA

CITY           SKY/WX    TMP DP  RH WIND       PRES   REMARKS
GRAND FORKS    PTCLDY    44  38  79 S16       29.99R
GRND FRKS AFB  MOCLDY    45  36  70 S18G25    29.97S
DEVILS LAKE    CLOUDY    47  36  65 S22G31    29.90S
$$

NDZ022-023-025-028>030-036>039-047>053-300600-
SOUTHEAST NORTH DAKOTA

CITY           SKY/WX    TMP DP  RH WIND       PRES   REMARKS
FARGO          CLEAR     44  38  79 S18       30.03F
JAMESTOWN      CLOUDY    42  36  79 S18       29.97S
$$





USA.gov is the U.S. government's official web portal to all federal, state and local government web resources and services.